Location: C�mpuri de-Sus
(45.9500°N, 22.5500°E)
Time: 05:27:21
(UTC+00:00)

Cosmos 2278 Rocket - Pass Details

Date: 07 June 2022
Orbit: 840 x 846 km, 71.0° (Epoch: 03 July)

Event Time Altitude Azimuth Distance (km) Brightness Sun altitude
Rises 22:29:35 0° 313° (NW) 3,413 6.0 -21.2°
Reaches altitude 10° 22:35:07 10° 269° (W) 2,467 4.6 -21.2°
Maximum altitude 22:35:25 10° 266° (W) 2,463 4.6 -21.2°
Drops below altitude 10° 22:35:42 10° 263° (W) 2,465 4.5 -21.2°
Enters shadow 22:37:05 - 249° (WSW) 2,550 4.5 -21.2°
